Location: Oberwangen
(47.4286°N, 8.9679°E)
Time: 23:28:26
(UTC+00:00)

Cosmos 2333 Rocket - Pass Details

Date: 20 June 2021
Orbit: 841 x 861 km, 70.8° (Epoch: 23 July)

Event Time Altitude Azimuth Distance (km) Brightness Sun altitude
Rises 20:16:30 0° 183° (S) 3,421 4.9 -7.3°
Reaches altitude 10° 20:19:04 10° 177° (S) 2,487 4.2 -7.6°
Maximum altitude 20:24:24 42° 108° (ESE) 1,205 2.7 -8.2°
Drops below altitude 10° 20:29:45 10° 39° (NE) 2,493 4.8 -8.8°
Sets 20:32:18 0° 33° (NNE) 3,430 5.6 -9.1°
